Regional Weather Roundup
Issued by NWS

Home | Current Version | Previous Version | Text Only | Print | Product List | Glossary On
Versions: 1 2 3 4 5 6 7 8 9 10 11 12 13 14 15 16 17 18 19 20 21 22 23 24 25 26 27 28 29 30 31 32 33 34 35 36 37 38 39 40 41 42 43 44 45 46 47 48 49 50
000
ASUS44 KFWD 250015
RWRTX
NORTH TEXAS HOURLY WEATHER ROUNDUP
NATIONAL WEATHER SERVICE FORT WORTH TX
700 PM CDT SAT SEP 24 2016

NOTE: "FAIR" INDICATES FEW OR NO CLOUDS BELOW 12,000 FEET WITH NO
SIGNIFICANT WEATHER AND/OR OBSTRUCTIONS TO VISIBILITY.

TXZ118-119-250100-
DALLAS/FORT WORTH METROPLEX

CITY           SKY/WX    TMP DP  RH WIND       PRES   REMARKS
DFW AIRPORT    PTCLDY    88  70  55 SE15      29.88S HX  93
6HR MIN TEMP:  78; 6HR MAX TEMP:  91; 6HR PCP:  0.04;

DALLAS LOVE    MOCLDY    88  70  55 SE17      29.89S HX  93
6HR MIN TEMP:  83; 6HR MAX TEMP:  92; 6HR PCP: TRACE;

FTW MEACHAM    CLEAR     88  70  55 SE14      29.88R HX  93
6HR MIN TEMP:  84; 6HR MAX TEMP:  92; 6HR PCP: TRACE;

DAL-EXECUTIVE  CLOUDY    86  72  62 SE13      29.89S HX  92
6HR MIN TEMP:  76; 6HR MAX TEMP:  88; 6HR PCP:  0.41;

FTW-ALLIANCE   PTCLDY    85  70  60 SE14      29.88S
6HR MIN TEMP:  77; 6HR MAX TEMP:  91; 6HR PCP:  0.08;

FTW-NAS-JRB    CLEAR     89  68  49 SE20G28   29.88S HX  93
6HR MIN TEMP:  83; 6HR MAX TEMP:  93; 6HR PCP: TRACE;

FTW-SPINKS     PTCLDY    88  70  55 SE10      29.91R HX  92
ARLINGTON      CLEAR     86  73  65 E10       29.90R HX  93
6HR MIN TEMP:  74; 6HR MAX TEMP:  88; 6HR PCP:  0.24;

GRAND PRAIRIE  CLEAR     86  72  62 E9        29.90S HX  92
ADDISON        CLEAR     88  70  55 SE13G21   29.90S HX  92
MESQUITE       CLEAR     88  68  51 SE13      29.91R HX  91
LANCASTER      PTCLDY    90  70  51 SE12      29.91R HX  94
6HR MIN TEMP:  82; 6HR MAX TEMP:  92;

$$

TXZ091>094-102>105-117-120-121-131>134-250100-
NORTH CENTRAL TEXAS

CITY           SKY/WX    TMP DP  RH WIND       PRES   REMARKS
SHRMAN/DENISON CLEAR     86  70  58 SE10G18   29.91F HX  91
6HR MIN TEMP:  86; 6HR MAX TEMP:  92;

GAINESVILLE      N/A     83  69  63 SE7       29.92R
6HR MIN TEMP:  83; 6HR MAX TEMP:  88;

BOWIE          CLOUDY    82  70  66 SE5       29.92R
6HR MIN TEMP:  82; 6HR MAX TEMP:  91;

BRIDGEPORT     PTCLDY    84  72  66 SE10G17   29.90R
6HR MIN TEMP:  84; 6HR MAX TEMP:  91;

DECATUR        CLEAR     83  68  59 SE13      29.90R
6HR MIN TEMP:  83; 6HR MAX TEMP:  89;

DENTON         CLEAR     85  70  60 SE12      29.88F
6HR MIN TEMP:  85; 6HR MAX TEMP:  89; 6HR PCP: TRACE;

MCKINNEY       PTCLDY    86  70  58 SE10      29.90S HX  90
6HR MIN TEMP:  86; 6HR MAX TEMP:  90;

GREENVILLE     PTCLDY    86  63  45 SE3       29.92R
ROCKWALL       MOCLDY    88  70  55 S13G18    29.90R HX  92
6HR MIN TEMP:  86; 6HR MAX TEMP:  92;

TERRELL        CLOUDY    88  69  53 SE12      29.91R HX  92
6HR MIN TEMP:  88; 6HR MAX TEMP:  92;

WAXAHACHIE     PTCLDY    86  72  63 SE10      29.91R HX  92
CLEBURNE       CLEAR     88  73  62 E13G20    29.92R HX  96
GRANBURY       PTCLDY    89  70  54 SE15G21   29.89R HX  94
6HR MIN TEMP:  89; 6HR MAX TEMP:  95;

$$

TXZ083>090-098>101-113>116-127>130-139>142-154-155-250100-
WESTERN NORTH TEXAS

CITY           SKY/WX    TMP DP  RH WIND       PRES   REMARKS
WICHITA FALLS  CLOUDY    83  69  62 SE9       29.87R
6HR MIN TEMP:  83; 6HR MAX TEMP:  90;

WF-KICKAPOO    CLOUDY    85  68  56 E12       29.89R
6HR MIN TEMP:  85; 6HR MAX TEMP:  92;

VERNON         CLOUDY    74  66  75 S15       29.89S THUNDER
ABILENE        CLOUDY    83  68  60 S9        29.88R
6HR MIN TEMP:  82; 6HR MAX TEMP:  90; 6HR PCP: TRACE;

ABILENE-DYESS  CLOUDY    78  67  69 W12       29.88R
6HR MIN TEMP:  78; 6HR MAX TEMP:  89;

CISCO          CLEAR     88  64  45 SE15G22   29.89S
BRECKENRIDGE   PTCLDY    88  65  46 SE9       29.87R
6HR MIN TEMP:  88; 6HR MAX TEMP:  93;

GRAHAM         MOCLDY    87  67  51 SE7       29.85R HX  90
6HR MIN TEMP:  87; 6HR MAX TEMP:  93;

MINERAL WELLS  CLEAR     86  69  56 SE14      29.86R HX  90
6HR MIN TEMP:  84; 6HR MAX TEMP:  91;

STEPHENVILLE   CLEAR     87  65  46 SE8G16    29.93R
6HR MIN TEMP:  87; 6HR MAX TEMP:  92;

COMANCHE       PTCLDY    87  69  54 S13G23    29.89R HX  91
6HR MIN TEMP:  87; 6HR MAX TEMP:  93;

BROWNWOOD      PTCLDY    88  64  45 SE12G21   29.88R
COLEMAN        CLEAR     89  61  39 S9        29.88S
6HR MIN TEMP:  87; 6HR MAX TEMP:  93;

$$

TXZ143>147-156>162-174-175-250100-
CENTRAL TEXAS

CITY           SKY/WX    TMP DP  RH WIND       PRES   REMARKS
WACO           LGT RAIN  82  71  69 S25G41    29.92R
6HR MIN TEMP:  86; 6HR MAX TEMP:  95;

WACO-MCGREGOR  CLOUDY    84  71  65 S18G28    29.92R
6HR MIN TEMP:  84; 6HR MAX TEMP:  95;

HILLSBORO      MOCLDY    83  74  72 SE12      29.90R HX  90
6HR MIN TEMP:  76; 6HR MAX TEMP:  91; 6HR PCP:  0.14;

CORSICANA      PTCLDY    87  69  54 SE16G25   29.93R HX  91
6HR MIN TEMP:  86; 6HR MAX TEMP:  93;

MEXIA          CLOUDY    84  70  63 SE13      29.92R
6HR MIN TEMP:  84; 6HR MAX TEMP:  93;

HEARNE         CLOUDY    73  73  98 CALM      29.93S
6HR MIN TEMP:  72; 6HR MAX TEMP:  94; 6HR PCP:  1.01;

CAMERON        CLOUDY    76  73  91 SE6       29.91F
6HR MIN TEMP:  76; 6HR MAX TEMP:  94; 6HR PCP:  0.58;

TEMPLE         CLOUDY    77  72  84 S13       29.92R
6HR MIN TEMP:  77; 6HR MAX TEMP:  92; 6HR PCP:  0.03;

KILLEEN        PTCLDY    75  73  91 SE10      29.91F
6HR MIN TEMP:  75; 6HR MAX TEMP:  92; 6HR PCP:  0.01;

KILLEEN-SKYLRK CLOUDY    79  71  76 S14       29.92S
6HR MIN TEMP:  77; 6HR MAX TEMP:  92; 6HR PCP: TRACE;

FORT HOOD      CLOUDY    76  68  77 S7        29.90R
6HR MIN TEMP:  74; 6HR MAX TEMP:  92; 6HR PCP: TRACE;

GATESVILLE     PTCLDY    82  66  57 S10G21    29.94R THUNDER
HAMILTON       CLEAR     87  69  55 SE16G23   29.92R HX  91
6HR MIN TEMP:  87; 6HR MAX TEMP:  92;

LAMPASAS       PTCLDY    81  71  73 SE8G16    29.91S
6HR MIN TEMP:  81; 6HR MAX TEMP:  92;

$$

TXZ095>097-106>112-122>126-135>138-148>153-164>167-250100-
EAST TEXAS

CITY           SKY/WX    TMP DP  RH WIND       PRES   REMARKS
PARIS          CLEAR     86  64  48 SE12      29.93S
6HR MIN TEMP:  86; 6HR MAX TEMP:  91;

SULPHUR SPRNGS CLEAR     87  65  47 SE7       29.94S
6HR MIN TEMP:  87; 6HR MAX TEMP:  93;

MOUNT PLEASANT CLEAR     84  65  53 SE6       29.94F
6HR MIN TEMP:  84; 6HR MAX TEMP:  92;

GILMER         CLEAR     85  67  55 E3        29.94S
6HR MIN TEMP:  85; 6HR MAX TEMP:  92;

MINEOLA        PTCLDY    84  68  58 SE3       29.92F
TYLER          CLEAR     88  68  51 SE13      29.93S HX  91
6HR MIN TEMP:  88; 6HR MAX TEMP:  94;

LONGVIEW       CLEAR     86  68  54 SE9       29.93F
6HR MIN TEMP:  86; 6HR MAX TEMP:  92;

MARSHALL       PTCLDY    85  69  58 CALM      29.96F
6HR MIN TEMP:  85; 6HR MAX TEMP:  90;

ATHENS         CLEAR     86  68  54 SE7       29.91S
PALESTINE      CLEAR     86  72  63 SE8       29.94S HX  92
JACKSONVILLE   CLEAR     85  68  57 SE3       29.96S
HENDERSON      CLEAR     86  67  53 SE7       29.95S
6HR MIN TEMP:  86; 6HR MAX TEMP:  93;

CENTER         CLEAR     86  69  55 SE3       29.96F HX  90
6HR MIN TEMP:  86; 6HR MAX TEMP:  93;

NACOGDOCHES    CLEAR     84  72  65 S5        29.93S
6HR MIN TEMP:  84; 6HR MAX TEMP:  91;

LUFKIN         CLEAR     82  70  66 SE5       29.94S
6HR MIN TEMP:  82; 6HR MAX TEMP:  91;

$$

SUPPLEMENTAL OBSERVATIONS (CENTRAL)

CITY           SKY/WX    TMP DP  RH WIND       PRES   REMARKS
DENISON DAM      N/A     84  66  54 SE9         N/A
CADDO GRASSLND   N/A     88  64  45 S6G14       N/A
PAT MAYSE LAKE   N/A     88  64  45 SE9         N/A
GREENVILLE       N/A     86  66  51 SE6         N/A
CEDAR HILL       N/A     82  72  69 SE2         N/A
ATHENS           N/A     88  68  51 S12         N/A  HX  91
LAKE LIMESTONE   N/A     79  72  78 S10G23      N/A
MCGREGOR         N/A     81  68  65 S16G23      N/A
$C1F1C2F2C3F3C4F4C5F5C6F6C7F7C8F8C9!


USA.gov is the U.S. government's official web portal to all federal, state and local government web resources and services.